Simultaneous Nadir Overpasses (SNOs) Predictions

Prediction of SNOs between GOES-16 and AQUA Satellite Orbit:

Table of predicted SNOs for the next 14.0 days since TLE Epoch: 2/26/2022
Index Date Time (GOES-16) GOES-16 Lat,Lon AQUA Lat,Lon Distance(km) Time Diff (sec)
1 02/26/2022 06:44:23 -0.07, -75.20 0.23, -76.52 150.83 80
2 02/28/2022 06:29:27 -0.06, -75.20 -0.40, -73.54 188.55 80
3 02/28/2022 18:50:49 0.06, -75.22 -0.70, -78.73 399.61 80
4 03/02/2022 18:38:33 0.06, -75.23 -0.06, -75.75 58.91 80
5 03/04/2022 18:28:57 0.05, -75.25 0.59, -72.77 282.74 80
6 03/05/2022 06:50:11 -0.05, -75.25 0.53, -77.91 302.91 80
7 03/07/2022 06:35:15 -0.05, -75.28 -0.13, -74.93 39.50 80
8 03/09/2022 06:22:58 -0.05, -75.31 -0.74, -71.95 382.41 80
9 03/09/2022 18:44:21 0.05, -75.33 -0.34, -77.13 205.18 80
10 03/11/2022 18:34:44 0.04, -75.37 0.29, -74.15 138.37 80
